Location: Gwatt
(46.7204°N, 7.6223°E)
Time: 08:36:17
(UTC+00:00)

Vanguard 3 - Pass Details

Date: 26 January 2021
Orbit: 508 x 3261 km, 33.3° (Epoch: 24 February)

Event Time Altitude Azimuth Distance (km) Brightness Sun altitude
Exits shadow 03:59:58 31° 192° (SSW) 2,131 9.0 -30.9°
Maximum altitude 04:01:49 34° 168° (SSE) 2,195 9.3 -30.5°
Drops below altitude 10° 04:11:56 10° 110° (ESE) 4,646 11.8 -28.8°
Sets 04:17:02 0° 104° (ESE) 6,122 12.8 -27.9°
